[[{"header":{"parameterUnit":"m.s-1","parameterCategory":1,"la1":30.2991,"la2":30.254,"lo1":-89.0895,"lo2":-89.0444,"dy":0.0017,"dx":0.0017,"nx":28,"ny":28,"refTime":"2023-07-28T09:00:00:Z","depth":0,"parameterNumber":2,"parameterNumberName":"U-component_of_WINDS"},"data":[0,0,0,0,0,0,0,0,0,0,0,0,0,0,0,0,0,0,0,0,0,0,0,0,0,0,0,0,0,0,0,0,0,0,0,0,0,0,0,0,0,0,0,0,0,0,0,0,0,0,0,0,0,0,0,0,0,0,3.8118,3.8119,0,3.8228,3.8229,3.823,3.8134,3.813,3.8126,3.8122,3.8239,3.8246,3.8253,0,0,0,0,0,0,0,0,0,0,0,0,0,3.7828,3.7834,3.8118,3.8119,3.8121,3.8228,3.8229,3.8231,3.8135,3.813,3.8125,3.8121,3.8237,3.8245,3.8253,0,0,0,0,0,0,0,0,0,0,0,0,0,3.7948,3.7836,3.8118,3.8086,3.8084,3.8227,3.8229,3.8231,3.8136,3.813,3.8124,3.8118,3.8234,3.8244,3.8254,3.8437,0,0,3.8286,3.829,0,0,0,0,0,0,0,0,3.7941,3.7959,3.8089,3.8088,3.8086,3.8161,3.817,3.83,3.8137,3.8116,3.8122,3.8115,3.8218,3.8229,3.8263,3.8442,3.8447,3.8286,3.8293,3.8297,3.83,0,0,0,0,0,0,0,3.7933,3.7953,3.8161,3.8091,3.8089,3.8067,3.8077,3.8194,3.82,3.8118,3.8111,3.8125,3.8216,3.8254,3.8265,3.8449,3.8286,3.8295,3.8302,3.8306,3.8781,3.8787,0,0,0,0,0,0,3.7928,3.7947,3.8158,3.8165,3.7997,3.8077,3.8088,3.8143,3.8198,3.82,3.813,3.812,3.8239,3.8254,3.8269,3.8485,3.8297,3.8307,3.8312,3.8775,3.8783,3.879,0,0,0,0,0,0,3.7922,3.7947,3.8153,3.8054,3.8079,3.8088,3.815,3.8148,3.8185,3.8207,3.8208,3.8167,3.8235,3.8255,3.8395,3.8488,3.8311,3.832,3.8767,3.8777,3.8786,3.8919,0,0,0,0,0,0,3.7914,3.7946,3.8014,3.8056,3.8084,3.8277,3.8156,3.8155,3.8203,3.8191,3.8242,3.8245,3.8232,3.838,3.8405,3.8498,3.8328,3.8759,3.8772,3.8783,3.8906,3.8932,3.8954,0,0,0,0,0,3.7904,3.8049,3.8018,3.8044,3.817,3.8283,3.8299,3.828,3.8211,3.828,3.8294,3.8243,3.8474,3.8395,3.8423,3.8521,3.8753,3.8768,3.8782,3.8896,3.8927,3.8953,0,0,0,0,0,0,3.8019,3.8054,3.802,3.8183,3.823,3.8266,3.8353,3.8314,3.8383,3.8369,3.8344,3.8357,3.8504,3.8526,3.8439,3.8699,3.8602,3.8623,3.8679,3.8709,3.8732,3.8724,3.8337,0,0,0,0,0,3.8063,3.815,3.8176,3.8317,3.8342,3.8344,3.8392,3.8373,3.8422,3.8442,3.8466,3.8517,3.86,3.8656,3.8734,3.8909,3.8919,3.899,3.9014,3.9033,3.9051,3.9144,3.9176,3.8838,3.8838,3.8837,0,0,3.8156,3.8185,3.8242,3.8341,3.8375,3.8467,3.8362,3.8464,3.8531,3.8458,3.8591,3.8611,3.8666,3.8824,3.8895,3.8847,3.9147,3.9052,3.9067,3.9075,3.9163,3.9195,3.9223,3.8848,3.8846,3.8844,0,0,3.837,3.8402,3.8522,3.8558,3.8611,3.8611,3.864,3.8682,3.8691,3.8824,3.8771,3.8852,3.8997,3.9038,3.9077,3.9307,3.9262,3.9333,3.9458,3.9549,3.9576,3.9599,3.968,3.971,3.9351,3.9352,3.9352,0,3.8479,3.8614,3.8589,3.8694,3.8739,3.8676,3.8797,3.8834,3.8911,3.8944,3.8889,3.9068,3.9101,3.9267,3.9323,3.9357,3.939,3.9327,3.9573,3.9597,3.9618,3.9695,3.9726,3.936,3.9359,3.9358,3.9357,0,3.8744,3.8839,3.893,3.9003,3.9058,3.9172,3.9165,3.9224,3.9201,3.9207,3.9343,3.9379,3.9463,3.9501,3.948,3.9665,3.9633,3.9577,3.9478,3.9659,3.9731,3.976,3.9372,3.9369,3.9366,3.9364,0,0,3.9036,3.9093,3.9126,3.9158,3.9212,3.9285,3.9395,3.9476,3.9527,3.9582,3.9674,3.9797,3.9745,3.979,3.9773,3.9853,4.0031,3.9786,3.9787,3.983,4.0236,4.0277,4.0312,4.0002,4.0008,4.0012,4.0231,0,3.9252,3.9442,3.9422,3.9604,3.969,3.9631,3.9727,3.977,3.9779,3.9854,3.9864,3.9952,3.9876,3.9903,3.9979,3.9993,4.0112,3.9977,4.0088,4.0092,4.0075,4.035,4.0394,4.0599,4.0259,4.0264,4.0267,0,3.953,3.9592,3.9782,3.982,3.9856,3.9943,4.0014,4.0087,4.0135,4.0136,4.0186,4.0154,4.0266,4.0166,4.0319,4.0228,4.0272,4.0286,4.0293,4.0302,4.019,4.0366,4.0664,4.0695,4.0311,4.0308,4.0305,0,3.9722,3.9854,3.9984,4.0013,4.0062,4.0124,4.0148,4.019,4.0239,4.0302,4.0334,4.041,4.0452,4.0512,4.0502,4.043,4.0658,4.0557,4.0662,4.0662,4.0712,4.0709,4.1021,4.0742,4.0742,4.0741,4.0741,0,3.9965,4.0083,4.007,4.015,4.0281,4.0258,4.0388,4.0404,4.0442,4.0525,4.0479,4.0557,4.054,4.0618,4.0612,4.0739,4.0759,4.0763,4.0759,4.0766,4.0766,4.0795,4.078,4.075,4.0748,4.0746,4.0745,0,4.0202,4.0198,4.0335,4.037,4.0381,4.0476,4.0506,4.0581,4.0585,4.0691,4.0714,4.0721,4.0811,4.0807,4.091,4.0905,4.1062,4.1043,4.1045,4.1041,4.1145,4.1135,4.1486,4.1531,4.1224,4.1227,4.1229,0,4.0357,4.0446,4.0489,4.054,4.0567,4.0651,4.07,4.0681,4.0734,4.0795,4.0864,4.0949,4.1016,4.1163,4.1178,4.1256,4.1238,4.1355,4.1249,4.1253,4.1238,4.1233,4.1241,4.1376,4.1379,4.1382,4.1384,0,4.0633,4.0626,4.0698,4.077,4.0829,4.0885,4.0936,4.0981,4.0967,4.103,4.112,4.1172,4.1276,4.1361,4.1435,4.146,4.1421,4.1418,4.1446,4.1454,4.1451,4.1453,4.1101,4.141,4.1407,4.1405,4.1404,4.1403,4.0833,4.0908,4.095,4.1032,4.1068,4.1116,4.1188,4.1201,4.1275,4.1357,4.1341,4.1443,4.1488,4.1584,4.1616,4.1695,4.1653,4.1694,4.1705,4.1715,4.1726,4.1439,4.1709,4.1708,4.1707,4.1707,4.1706,0,4.1105,4.1128,4.1204,4.1275,4.134,4.1295,4.1349,4.1406,4.1495,4.154,4.1606,4.171,4.1792,4.1813,4.1892,4.1952,4.1935,4.1973,4.1968,4.1974,4.1759,4.1727,4.1985,4.1985,4.1985,4.1985,4.1984,4.1984,4.1254,4.138,4.1378,4.1521,4.1543,4.1641,4.1675,4.172,4.1755,4.1872,4.194,4.1952,4.1988,4.2069,4.2142,4.2146,4.2177,4.2222,4.2219,4.2018,4.199,4.1963,4.1932,4.2229,4.2229,4.2427,4.2429,4.243]},{"header":{"parameterUnit":"m.s-1","parameterCategory":1,"la1":30.2991,"la2":30.254,"lo1":-89.0895,"lo2":-89.0444,"dy":0.0017,"dx":0.0017,"nx":28,"ny":28,"refTime":"2023-07-28T09:00:00:Z","depth":0,"parameterNumber":3,"parameterNumberName":"V-component_of_WINDS"},"data":[0,0,0,0,0,0,0,0,0,0,0,0,0,0,0,0,0,0,0,0,0,0,0,0,0,0,0,0,0,0,0,0,0,0,0,0,0,0,0,0,0,0,0,0,0,0,0,0,0,0,0,0,0,0,0,0,0,0,-0.2272,-0.2271,0,-0.2232,-0.2232,-0.2231,-0.2228,-0.2228,-0.2229,-0.2229,-0.2187,-0.2185,-0.2184,0,0,0,0,0,0,0,0,0,0,0,0,0,-0.2342,-0.2341,-0.2272,-0.2271,-0.2271,-0.2232,-0.2232,-0.2231,-0.2228,-0.2228,-0.2229,-0.2229,-0.2187,-0.2185,-0.2184,0,0,0,0,0,0,0,0,0,0,0,0,0,-0.2308,-0.2341,-0.2272,-0.2264,-0.2263,-0.2232,-0.2232,-0.2231,-0.2227,-0.2228,-0.2229,-0.2229,-0.2188,-0.2186,-0.2183,-0.2157,0,0,-0.2176,-0.2175,0,0,0,0,0,0,0,0,-0.231,-0.2305,-0.2266,-0.2265,-0.2263,-0.2236,-0.2241,-0.2206,-0.2227,-0.2241,-0.2229,-0.223,-0.2202,-0.2199,-0.219,-0.2155,-0.2153,-0.2176,-0.2175,-0.2174,-0.2173,0,0,0,0,0,0,0,-0.2312,-0.2307,-0.2256,-0.2265,-0.2264,-0.2262,-0.2258,-0.2235,-0.2219,-0.224,-0.224,-0.2235,-0.2202,-0.2192,-0.2189,-0.2152,-0.2176,-0.2174,-0.2173,-0.2172,-0.2094,-0.2093,0,0,0,0,0,0,-0.2316,-0.2309,-0.2257,-0.2255,-0.2289,-0.2261,-0.2256,-0.2244,-0.2219,-0.2216,-0.2235,-0.2235,-0.2196,-0.2192,-0.2188,-0.2155,-0.2174,-0.2172,-0.2171,-0.2094,-0.2093,-0.2093,0,0,0,0,0,0,-0.2318,-0.2312,-0.2259,-0.2282,-0.2275,-0.2259,-0.2245,-0.2243,-0.2233,-0.2215,-0.2212,-0.2228,-0.2196,-0.2191,-0.2165,-0.2153,-0.2171,-0.2169,-0.2095,-0.2094,-0.2093,-0.2089,0,0,0,0,0,0,-0.232,-0.2312,-0.2302,-0.2282,-0.2274,-0.2237,-0.2244,-0.2242,-0.223,-0.223,-0.2208,-0.2205,-0.2196,-0.2168,-0.2162,-0.215,-0.2167,-0.2096,-0.2095,-0.2093,-0.209,-0.2088,-0.2086,0,0,0,0,0,-0.2322,-0.2302,-0.2302,-0.2296,-0.2261,-0.2236,-0.2232,-0.2223,-0.2229,-0.2218,-0.2207,-0.2205,-0.2156,-0.2165,-0.2159,-0.2146,-0.2097,-0.2095,-0.2094,-0.2091,-0.2088,-0.2086,0,0,0,0,0,0,-0.2321,-0.2299,-0.2299,-0.2271,-0.2256,-0.2236,-0.2222,-0.222,-0.2202,-0.2203,-0.2193,-0.2188,-0.2162,-0.2152,-0.2163,-0.2119,-0.2127,-0.2124,-0.2127,-0.2124,-0.2122,-0.2125,-0.2165,0,0,0,0,0,-0.2318,-0.23,-0.2282,-0.2259,-0.2252,-0.2238,-0.2227,-0.2222,-0.2205,-0.2198,-0.2185,-0.2168,-0.2149,-0.2136,-0.2117,-0.2089,-0.2084,-0.2077,-0.2075,-0.2073,-0.2071,-0.2055,-0.2051,-0.2087,-0.2087,-0.2087,0,0,-0.231,-0.2296,-0.2285,-0.2259,-0.2246,-0.2227,-0.2233,-0.2213,-0.2199,-0.2195,-0.217,-0.2159,-0.214,-0.2113,-0.21,-0.2103,-0.206,-0.2071,-0.207,-0.2068,-0.2053,-0.2049,-0.2046,-0.2086,-0.2086,-0.2087,0,0,-0.2287,-0.2275,-0.2255,-0.2242,-0.2224,-0.2215,-0.221,-0.2191,-0.2184,-0.2158,-0.2155,-0.2138,-0.2105,-0.2092,-0.208,-0.2053,-0.2051,-0.2048,-0.2037,-0.2021,-0.2019,-0.2016,-0.2006,-0.2002,-0.2045,-0.2045,-0.2045,0,-0.228,-0.2252,-0.2245,-0.2225,-0.2213,-0.221,-0.219,-0.2178,-0.2153,-0.2145,-0.2149,-0.2108,-0.2095,-0.2064,-0.2058,-0.2049,-0.2043,-0.2049,-0.202,-0.2017,-0.2014,-0.2005,-0.2001,-0.2045,-0.2045,-0.2045,-0.2045,0,-0.2244,-0.2225,-0.2211,-0.2188,-0.2175,-0.2155,-0.2144,-0.2132,-0.2128,-0.2119,-0.2093,-0.2077,-0.2056,-0.2048,-0.2044,-0.2017,-0.202,-0.2022,-0.2029,-0.2011,-0.2001,-0.1998,-0.2044,-0.2044,-0.2044,-0.2044,0,0,-0.2218,-0.2192,-0.2187,-0.2177,-0.2156,-0.2141,-0.2121,-0.21,-0.2089,-0.2073,-0.2056,-0.2028,-0.2031,-0.2018,-0.2012,-0.1999,-0.1978,-0.2003,-0.2002,-0.1998,-0.1947,-0.1945,-0.1941,-0.1977,-0.1977,-0.1976,-0.1949,0,-0.2192,-0.2156,-0.2149,-0.2118,-0.21,-0.2098,-0.208,-0.2066,-0.2057,-0.204,-0.203,-0.2011,-0.2016,-0.2008,-0.1995,-0.1984,-0.1968,-0.1986,-0.196,-0.196,-0.1965,-0.1936,-0.1934,-0.1909,-0.1945,-0.1945,-0.1944,0,-0.2156,-0.214,-0.2107,-0.2089,-0.2082,-0.2066,-0.2047,-0.2031,-0.2014,-0.2009,-0.1995,-0.1991,-0.197,-0.1979,-0.195,-0.1962,-0.1952,-0.1945,-0.1943,-0.194,-0.195,-0.1931,-0.19,-0.1896,-0.1938,-0.1939,-0.1939,0,-0.214,-0.211,-0.2086,-0.2078,-0.2056,-0.2045,-0.2036,-0.202,-0.2008,-0.1991,-0.1983,-0.1964,-0.1953,-0.1938,-0.1929,-0.1937,-0.19,-0.1909,-0.1895,-0.1895,-0.1886,-0.1887,-0.1852,-0.1881,-0.1881,-0.1881,-0.1881,0,-0.2111,-0.2091,-0.2078,-0.2064,-0.2041,-0.2034,-0.2012,-0.2002,-0.1988,-0.1972,-0.1968,-0.1953,-0.1942,-0.1925,-0.1918,-0.1895,-0.189,-0.1885,-0.1883,-0.1884,-0.1885,-0.1877,-0.1878,-0.188,-0.188,-0.188,-0.1881,0,-0.2088,-0.2079,-0.2053,-0.2036,-0.2031,-0.2015,-0.2,-0.1985,-0.1977,-0.1956,-0.1951,-0.1938,-0.1918,-0.1908,-0.1882,-0.1878,-0.1851,-0.185,-0.1856,-0.1856,-0.1842,-0.1843,-0.1801,-0.1794,-0.1828,-0.1827,-0.1827,0,-0.207,-0.2055,-0.2036,-0.2025,-0.2015,-0.1997,-0.1985,-0.1978,-0.1965,-0.1946,-0.1934,-0.1914,-0.1897,-0.1865,-0.1853,-0.1833,-0.1832,-0.1819,-0.1829,-0.1831,-0.1831,-0.1832,-0.183,-0.1816,-0.1816,-0.1816,-0.1816,0,-0.2039,-0.2035,-0.2018,-0.2,-0.1986,-0.1971,-0.1956,-0.1947,-0.1937,-0.1923,-0.1903,-0.189,-0.1865,-0.1845,-0.1825,-0.1815,-0.1813,-0.1813,-0.1808,-0.1809,-0.1813,-0.181,-0.1851,-0.1813,-0.1813,-0.1814,-0.1814,-0.1814,-0.2017,-0.2003,-0.1988,-0.1969,-0.1958,-0.1944,-0.193,-0.192,-0.1904,-0.1883,-0.1879,-0.1857,-0.1842,-0.1815,-0.1804,-0.1787,-0.179,-0.1784,-0.1782,-0.178,-0.178,-0.1817,-0.1784,-0.1784,-0.1784,-0.1784,-0.1784,0,-0.1985,-0.1975,-0.1958,-0.1938,-0.1924,-0.1924,-0.1908,-0.1896,-0.1877,-0.1863,-0.1847,-0.1824,-0.1804,-0.1791,-0.1772,-0.1761,-0.1759,-0.1756,-0.1756,-0.1754,-0.1778,-0.1784,-0.1757,-0.1757,-0.1757,-0.1757,-0.1757,-0.1757,-0.1967,-0.1943,-0.1938,-0.1909,-0.1899,-0.1878,-0.1869,-0.1857,-0.1845,-0.182,-0.1804,-0.1796,-0.1782,-0.1762,-0.1744,-0.1741,-0.1733,-0.1729,-0.1726,-0.1749,-0.1752,-0.1754,-0.176,-0.1728,-0.1728,-0.1703,-0.1702,-0.1702]}]]